User: anonymous   Login
Location: ??????
(42.0089°N, 44.3281°E)
Time: 18:34:01
(UTC+00:00)
Language:

Cosmos 2100 Rocket - Orbit

View from above orbital plane
View from above orbital plane
View from above satellite
View from above satellite

Ground track
Ground track

The orbit data is extracted from the following two-line orbital elements,

1 20805U 90083B   22016.89741174  .00000125  00000-0  11281-3 0  9991
2 20805  82.9356 257.4699 0031537  37.2498 333.6374 13.75933422573423
Epoch (UTC): 16 January 2022 21:32:16
Eccentricity: 0.0031537
inclination: 82.9356°
perigee height: 955 km
apogee height: 1001 km
right ascension of ascending node: 257.4699°
argument of perigee: 37.2498°
revolutions per day: 13.75933422
mean anomaly at epoch: 333.6374°
orbit number at epoch: 57342

The dashed part of the orbit path shows where the satellite is in the earth's shadow,  

DLR